Вернуться в каталог

STARLINK-4625

АктивенСвязьSSO
NORAD 53683·PAYLOAD·🇺🇸 United States

Запущен Aug 31, 2022 с Vandenberg Space Force Base

Loading…

Ближайшие Пролёты (ближайшие 24 часа)

TLE

СвежийSource: CelesTrak SupGP

Эпоха: Sep 15, 2026, 01:24 UTC

1 53683C 22105AM  26258.05881944  .00075110  00000+0  52148-2 0  2580
2 53683  97.2841 132.1878 0001836  80.8252 104.9183 15.05620469    16

Отслеживайте STARLINK-4625 в реальном времени с AllMySat

Download on the App Store